Flight Briefing for CMB822

Departure Arrival
Grantley Adams International Airport (TBPB)
Click to view FAA NOTAMS
Patrick Air Force Base (KCOF)
Click to view FAA NOTAMS
Departure Time Arrival Time
N/A N/A
Aircraft Distance
B757-200SF 1490nm
Departure METAR Arrival METAR
TBPB 232300Z 10012KT 9999 FEW022 27/22 Q1012 NOSIG KCOF 232256Z AUTO 07014KT 10SM CLR 27/19 A3014 RMK AO2 SLP211 T02670193 $
Suggested Route
BGI UA555 ILURI A555 COY SJU RTE6 BEANO Y290 HAGIT Y352 ZQA A555 ZBV BR57V WIERS BR22V FLL LBV COSTR3


View recent IFR Routes data
Notes
USTRANSCOM CONTRACT FLIGHT

Charts and Procedures

Charts for TBPB
No chart available
Charts for KCOF
No chart available

Windy.com Weather Map